Location: Newark
(13.8117°N, 3.6025°W)
Time: 16:03:01
(UTC+00:00)

Vanguard 2 - Pass Details

Date: 01 September 2019
Orbit: 554 x 2937 km, 32.9° (Epoch: 22 September)

Event Time Altitude Azimuth Distance (km) Brightness Sun altitude
Rises 07:58:11 0° 251° (WSW) 3,406 10.3 27.0°
Reaches altitude 10° 08:01:09 10° 257° (WSW) 2,214 9.4 27.7°
Maximum altitude 08:05:44 42° 329° (NNW) 855 7.9 28.9°
Drops below altitude 10° 08:09:30 10° 42° (NE) 1,821 10.2 29.8°
Sets 08:11:43 0° 49° (NE) 2,722 11.1 30.3°
